Time,TemperatureF,DewpointF,PressureIn,WindDirection,WindDirectionDegrees,WindSpeedMPH,WindSpeedGustMPH,Humidity,HourlyPrecipIn,Conditions,Clouds,dailyrainin,SoftwareType,DateUTC
2013-01-19 00:00:00,29.6,25.9,30.48,ENE,68,0.0,0.0,86,0.00,,---,0.00,VWS V14.01,2013-01-19 05:00:00,
2013-01-19 00:02:00,29.6,25.9,30.48,ENE,68,0.0,0.0,86,0.00,,---,0.00,VWS V14.01,2013-01-19 05:02:00,
2013-01-19 00:03:00,29.4,25.7,30.48,ENE,68,0.0,0.0,86,0.00,,---,0.00,VWS V14.01,2013-01-19 05:03:00,
2013-01-19 00:08:00,29.2,25.5,30.48,ENE,68,0.0,0.0,86,0.00,,---,0.00,VWS V14.01,2013-01-19 05:08:00,
2013-01-19 00:13:00,29.0,25.4,30.48,ENE,68,0.0,0.0,86,0.00,,---,0.00,VWS V14.01,2013-01-19 05:13:00,
2013-01-19 00:18:00,28.9,25.5,30.48,ENE,68,0.0,0.0,87,0.00,,---,0.00,VWS V14.01,2013-01-19 05:18:00,
2013-01-19 00:23:00,28.9,25.2,30.49,ENE,68,0.0,0.0,86,0.00,,---,0.00,VWS V14.01,2013-01-19 05:23:00,
2013-01-19 00:28:00,28.7,25.3,30.48,ENE,68,0.0,0.0,87,0.00,,---,0.00,VWS V14.01,2013-01-19 05:28:00,
2013-01-19 00:33:00,28.5,24.9,30.49,ENE,68,0.0,0.0,86,0.00,,---,0.00,VWS V14.01,2013-01-19 05:33:00,
2013-01-19 00:38:00,28.5,24.9,30.49,ENE,68,0.0,0.0,86,0.00,,---,0.00,VWS V14.01,2013-01-19 05:38:00,
2013-01-19 00:43:00,28.5,24.9,30.49,ENE,68,0.0,0.0,86,0.00,,---,0.00,VWS V14.01,2013-01-19 05:43:00,
2013-01-19 00:48:00,28.5,24.9,30.49,ENE,68,0.0,0.0,86,0.00,,---,0.00,VWS V14.01,2013-01-19 05:48:00,
2013-01-19 00:53:00,28.3,24.7,30.49,ENE,68,0.0,0.0,86,0.00,,---,0.00,VWS V14.01,2013-01-19 05:53:00,
2013-01-19 00:58:00,28.3,24.7,30.49,ENE,68,0.0,0.0,86,0.00,,---,0.00,VWS V14.01,2013-01-19 05:58:00,
2013-01-19 01:03:00,28.1,24.5,30.49,ENE,68,0.0,0.0,86,0.00,,---,0.00,VWS V14.01,2013-01-19 06:03:00,
2013-01-19 01:08:00,28.1,24.5,30.49,ENE,68,0.0,0.0,86,0.00,,---,0.00,VWS V14.01,2013-01-19 06:08:00,
2013-01-19 01:13:00,28.0,24.4,30.49,ENE,68,0.0,0.0,86,0.00,,---,0.00,VWS V14.01,2013-01-19 06:13:00,
2013-01-19 01:18:00,28.0,24.4,30.49,ENE,68,0.0,0.0,86,0.00,,---,0.00,VWS V14.01,2013-01-19 06:18:00,
2013-01-19 01:23:00,28.0,24.4,30.49,ENE,68,0.0,0.0,86,0.00,,---,0.00,VWS V14.01,2013-01-19 06:23:00,
2013-01-19 01:28:00,27.8,24.5,30.49,ENE,68,0.0,0.0,87,0.00,,---,0.00,VWS V14.01,2013-01-19 06:28:00,
2013-01-19 01:33:00,27.8,24.5,30.49,ENE,68,0.0,0.0,87,0.00,,---,0.00,VWS V14.01,2013-01-19 06:33:00,
2013-01-19 01:38:00,27.6,24.3,30.49,ENE,68,0.0,0.0,87,0.00,,---,0.00,VWS V14.01,2013-01-19 06:38:00,
2013-01-19 01:43:00,27.6,24.3,30.49,ENE,68,0.0,0.0,87,0.00,,---,0.00,VWS V14.01,2013-01-19 06:43:00,
2013-01-19 01:48:00,27.4,24.1,30.49,ENE,68,0.0,0.0,87,0.00,,---,0.00,VWS V14.01,2013-01-19 06:48:00,
2013-01-19 01:53:00,27.4,24.1,30.49,ENE,68,0.0,0.0,87,0.00,,---,0.00,VWS V14.01,2013-01-19 06:53:00,
2013-01-19 01:58:00,27.4,24.1,30.49,ENE,68,0.0,0.0,87,0.00,,---,0.00,VWS V14.01,2013-01-19 06:58:00,
2013-01-19 02:03:00,27.4,24.1,30.49,ENE,68,0.0,0.0,87,0.00,,---,0.00,VWS V14.01,2013-01-19 07:03:00,
2013-01-19 02:08:00,27.4,24.1,30.49,ENE,68,0.0,0.0,87,0.00,,---,0.00,VWS V14.01,2013-01-19 07:08:00,
2013-01-19 02:13:00,27.4,24.1,30.48,ENE,68,0.0,0.0,87,0.00,,---,0.00,VWS V14.01,2013-01-19 07:13:00,
2013-01-19 02:18:00,27.2,23.9,30.48,ENE,68,0.0,0.0,87,0.00,,---,0.00,VWS V14.01,2013-01-19 07:18:00,
2013-01-19 02:23:00,27.1,23.8,30.48,ENE,68,0.0,0.0,87,0.00,,---,0.00,VWS V14.01,2013-01-19 07:23:00,
2013-01-19 02:28:00,27.1,23.8,30.48,ENE,68,0.0,0.0,87,0.00,,---,0.00,VWS V14.01,2013-01-19 07:28:00,
2013-01-19 02:33:00,27.1,23.8,30.47,ENE,68,0.0,0.0,87,0.00,,---,0.00,VWS V14.01,2013-01-19 07:33:00,
2013-01-19 02:38:00,26.9,23.9,30.47,ENE,68,0.0,0.0,88,0.00,,---,0.00,VWS V14.01,2013-01-19 07:38:00,
2013-01-19 02:43:00,26.9,23.9,30.47,ENE,68,0.0,0.0,88,0.00,,---,0.00,VWS V14.01,2013-01-19 07:43:00,
2013-01-19 02:48:00,26.9,23.9,30.47,ENE,68,0.0,0.0,88,0.00,,---,0.00,VWS V14.01,2013-01-19 07:48:00,
2013-01-19 02:53:00,26.9,23.9,30.47,ENE,68,0.0,0.0,88,0.00,,---,0.00,VWS V14.01,2013-01-19 07:53:00,
2013-01-19 02:58:00,27.1,24.0,30.47,ENE,68,0.0,0.0,88,0.00,,---,0.00,VWS V14.01,2013-01-19 07:58:00,
2013-01-19 03:03:00,27.1,24.0,30.46,ENE,68,0.0,0.0,88,0.00,,---,0.00,VWS V14.01,2013-01-19 08:03:00,
2013-01-19 03:08:00,26.9,23.9,30.46,ENE,68,0.0,0.0,88,0.00,,---,0.00,VWS V14.01,2013-01-19 08:08:00,
2013-01-19 03:13:00,27.1,24.0,30.46,ENE,68,0.0,0.0,88,0.00,,---,0.00,VWS V14.01,2013-01-19 08:13:00,
2013-01-19 03:18:00,26.9,23.9,30.46,ENE,68,0.0,0.0,88,0.00,,---,0.00,VWS V14.01,2013-01-19 08:18:00,
2013-01-19 03:23:00,27.1,24.0,30.46,ENE,68,0.0,0.0,88,0.00,,---,0.00,VWS V14.01,2013-01-19 08:23:00,
2013-01-19 03:28:00,27.1,24.0,30.45,ENE,68,0.0,0.0,88,0.00,,---,0.00,VWS V14.01,2013-01-19 08:28:00,
2013-01-19 03:33:00,27.1,24.0,30.45,ENE,68,0.0,0.0,88,0.00,,---,0.00,VWS V14.01,2013-01-19 08:33:00,
2013-01-19 03:38:00,27.1,24.0,30.45,ENE,68,0.0,0.0,88,0.00,,---,0.00,VWS V14.01,2013-01-19 08:38:00,
2013-01-19 03:43:00,27.1,24.0,30.45,ENE,68,0.0,0.0,88,0.00,,---,0.00,VWS V14.01,2013-01-19 08:43:00,
2013-01-19 03:48:00,27.1,24.0,30.45,ENE,68,0.0,0.0,88,0.00,,---,0.00,VWS V14.01,2013-01-19 08:48:00,
2013-01-19 03:53:00,27.2,24.4,30.45,ENE,68,0.0,0.0,89,0.00,,---,0.00,VWS V14.01,2013-01-19 08:53:00,
2013-01-19 03:58:00,27.4,24.6,30.45,ENE,68,0.0,0.0,89,0.00,,---,0.00,VWS V14.01,2013-01-19 08:58:00,
2013-01-19 04:03:00,27.6,24.8,30.45,ENE,68,0.0,0.0,89,0.00,,---,0.00,VWS V14.01,2013-01-19 09:03:00,
2013-01-19 04:08:00,27.6,24.8,30.45,ENE,68,0.7,0.8,89,0.00,,---,0.00,VWS V14.01,2013-01-19 09:08:00,
2013-01-19 04:13:00,27.6,24.8,30.45,ENE,68,0.0,0.0,89,0.00,,---,0.00,VWS V14.01,2013-01-19 09:13:00,
2013-01-19 04:18:00,27.6,24.8,30.45,ENE,68,0.0,0.0,89,0.00,,---,0.00,VWS V14.01,2013-01-19 09:18:00,
2013-01-19 04:23:00,27.6,24.8,30.45,ENE,68,0.0,0.0,89,0.00,,---,0.00,VWS V14.01,2013-01-19 09:23:00,
2013-01-19 04:29:00,27.4,24.6,30.45,ENE,68,0.0,0.0,89,0.00,,---,0.00,VWS V14.01,2013-01-19 09:29:00,
2013-01-19 04:34:00,27.4,24.6,30.45,ENE,68,0.0,0.0,89,0.00,,---,0.00,VWS V14.01,2013-01-19 09:34:00,
2013-01-19 04:39:00,27.4,24.6,30.45,ENE,68,0.0,0.0,89,0.00,,---,0.00,VWS V14.01,2013-01-19 09:39:00,
2013-01-19 04:44:00,27.4,24.6,30.45,ENE,68,0.0,0.0,89,0.00,,---,0.00,VWS V14.01,2013-01-19 09:44:00,
2013-01-19 04:49:00,27.4,24.6,30.45,ENE,68,0.0,0.0,89,0.00,,---,0.00,VWS V14.01,2013-01-19 09:49:00,
2013-01-19 04:54:00,27.4,24.6,30.44,ENE,68,0.0,0.0,89,0.00,,---,0.00,VWS V14.01,2013-01-19 09:54:00,
2013-01-19 04:59:00,27.2,24.4,30.45,ENE,68,0.3,0.4,89,0.00,,---,0.00,VWS V14.01,2013-01-19 09:59:00,
2013-01-19 05:04:00,27.4,24.6,30.45,East,90,0.3,0.4,89,0.00,,---,0.00,VWS V14.01,2013-01-19 10:04:00,
2013-01-19 05:09:00,27.8,25.3,30.45,East,90,0.3,0.4,90,0.00,,---,0.00,VWS V14.01,2013-01-19 10:09:00,
2013-01-19 05:14:00,27.8,25.3,30.45,East,90,0.0,0.0,90,0.00,,---,0.00,VWS V14.01,2013-01-19 10:14:00,
2013-01-19 05:19:00,27.8,25.3,30.45,East,90,0.0,0.0,90,0.00,,---,0.00,VWS V14.01,2013-01-19 10:19:00,
2013-01-19 05:24:00,27.8,25.3,30.45,East,90,0.0,0.0,90,0.00,,---,0.00,VWS V14.01,2013-01-19 10:24:00,
2013-01-19 05:29:00,27.6,24.8,30.45,East,90,0.0,0.0,89,0.00,,---,0.00,VWS V14.01,2013-01-19 10:29:00,
2013-01-19 05:34:00,27.4,24.6,30.45,East,90,0.0,0.0,89,0.00,,---,0.00,VWS V14.01,2013-01-19 10:34:00,
2013-01-19 05:39:00,27.4,24.6,30.45,East,90,0.0,0.0,89,0.00,,---,0.00,VWS V14.01,2013-01-19 10:39:00,
2013-01-19 05:44:00,27.2,24.4,30.46,East,90,0.0,0.0,89,0.00,,---,0.00,VWS V14.01,2013-01-19 10:44:00,
2013-01-19 05:49:00,27.2,24.4,30.46,East,90,0.0,0.0,89,0.00,,---,0.00,VWS V14.01,2013-01-19 10:49:00,
2013-01-19 05:54:00,27.1,24.3,30.45,East,90,0.0,0.0,89,0.00,,---,0.00,VWS V14.01,2013-01-19 10:54:00,
2013-01-19 05:59:00,27.1,24.3,30.45,East,90,0.0,0.0,89,0.00,,---,0.00,VWS V14.01,2013-01-19 10:59:00,
2013-01-19 06:04:00,26.9,24.1,30.45,East,90,0.0,0.0,89,0.00,,---,0.00,VWS V14.01,2013-01-19 11:04:00,
2013-01-19 06:09:00,26.9,24.1,30.45,East,90,0.0,0.0,89,0.00,,---,0.00,VWS V14.01,2013-01-19 11:09:00,
2013-01-19 06:14:00,26.9,24.1,30.45,East,90,0.0,0.0,89,0.00,,---,0.00,VWS V14.01,2013-01-19 11:14:00,
2013-01-19 07:47:00,27.8,25.5,30.46,East,90,0.0,0.0,91,0.00,,---,0.00,VWS V14.01,2013-01-19 12:47:00,
2013-01-19 07:48:00,27.6,25.3,30.45,East,90,0.0,0.0,91,0.00,,---,0.00,VWS V14.01,2013-01-19 12:48:00,
2013-01-19 07:53:00,27.8,25.5,30.46,East,90,0.0,0.0,91,0.00,,---,0.00,VWS V14.01,2013-01-19 12:53:00,
2013-01-19 07:58:00,27.8,25.5,30.45,East,90,0.0,0.0,91,0.00,,---,0.00,VWS V14.01,2013-01-19 12:58:00,
2013-01-19 08:03:00,28.0,25.7,30.45,East,90,0.0,0.0,91,0.00,,---,0.00,VWS V14.01,2013-01-19 13:03:00,
2013-01-19 08:08:00,28.1,25.8,30.46,East,90,0.0,0.0,91,0.00,,---,0.00,VWS V14.01,2013-01-19 13:08:00,
2013-01-19 08:13:00,28.3,26.0,30.46,East,90,0.0,0.0,91,0.00,,---,0.00,VWS V14.01,2013-01-19 13:13:00,
2013-01-19 08:18:00,29.0,26.7,30.45,East,90,0.0,0.0,91,0.00,,---,0.00,VWS V14.01,2013-01-19 13:18:00,
2013-01-19 08:23:00,29.9,27.6,30.45,East,90,0.0,0.0,91,0.00,,---,0.00,VWS V14.01,2013-01-19 13:23:00,
2013-01-19 08:28:00,30.8,28.5,30.45,East,90,0.0,0.0,91,0.00,,---,0.00,VWS V14.01,2013-01-19 13:28:00,
2013-01-19 08:33:00,31.6,29.3,30.45,NE,45,0.0,0.0,91,0.00,,---,0.00,VWS V14.01,2013-01-19 13:33:00,
2013-01-19 08:38:00,32.3,30.2,30.46,ENE,68,0.7,0.8,92,0.00,,---,0.00,VWS V14.01,2013-01-19 13:38:00,
2013-01-19 08:43:00,33.2,31.1,30.45,NNE,22,0.7,1.5,92,0.00,,---,0.00,VWS V14.01,2013-01-19 13:43:00,
2013-01-19 08:48:00,33.5,31.1,30.45,ENE,68,3.3,4.2,91,0.00,,---,0.00,VWS V14.01,2013-01-19 13:48:00,
2013-01-19 08:53:00,33.7,31.0,30.45,NNE,22,0.7,0.8,90,0.00,,---,0.00,VWS V14.01,2013-01-19 13:53:00,
2013-01-19 08:58:00,33.9,31.0,30.45,NE,45,1.2,1.5,89,0.00,,---,0.00,VWS V14.01,2013-01-19 13:58:00,
2013-01-19 09:03:00,33.9,31.0,30.45,ESE,112,0.7,0.8,89,0.00,,---,0.00,VWS V14.01,2013-01-19 14:03:00,
2013-01-19 09:08:00,33.9,31.0,30.46,ESE,112,0.3,0.4,89,0.00,,---,0.00,VWS V14.01,2013-01-19 14:08:00,
2013-01-19 09:13:00,34.3,31.5,30.46,NE,45,2.6,3.4,89,0.00,,---,0.00,VWS V14.01,2013-01-19 14:13:00,
2013-01-19 09:18:00,35.2,32.0,30.46,NE,45,2.1,2.7,88,0.00,,---,0.00,VWS V14.01,2013-01-19 14:18:00,
2013-01-19 09:23:00,36.3,32.8,30.46,NE,45,0.0,0.0,87,0.00,,---,0.00,VWS V14.01,2013-01-19 14:23:00,
2013-01-19 09:28:00,37.0,33.5,30.46,ESE,112,1.5,1.9,87,0.00,,---,0.00,VWS V14.01,2013-01-19 14:28:00,
2013-01-19 09:34:00,38.1,34.3,30.46,East,90,5.9,7.6,86,0.00,,---,0.00,VWS V14.01,2013-01-19 14:34:00,
2013-01-19 09:39:00,38.8,34.4,30.47,NNE,22,1.5,3.8,84,0.00,,---,0.00,VWS V14.01,2013-01-19 14:39:00,
2013-01-19 09:44:00,39.6,34.9,30.47,SE,135,3.3,4.2,83,0.00,,---,0.00,VWS V14.01,2013-01-19 14:44:00,
2013-01-19 09:49:00,39.9,34.9,30.47,NE,45,1.2,1.5,82,0.00,,---,0.00,VWS V14.01,2013-01-19 14:49:00,
2013-01-19 09:54:00,40.1,35.0,30.47,ESE,112,1.5,1.9,82,0.00,,---,0.00,VWS V14.01,2013-01-19 14:54:00,
2013-01-19 09:59:00,40.1,34.4,30.47,NE,45,0.0,0.0,80,0.00,,---,0.00,VWS V14.01,2013-01-19 14:59:00,
2013-01-19 10:04:00,40.3,34.6,30.47,ENE,68,0.0,0.4,80,0.00,,---,0.00,VWS V14.01,2013-01-19 15:04:00,
2013-01-19 10:09:00,40.8,35.1,30.47,NNE,22,1.2,1.5,80,0.00,,---,0.00,VWS V14.01,2013-01-19 15:09:00,
2013-01-19 10:14:00,41.4,35.4,30.46,NE,45,0.3,0.4,79,0.00,,---,0.00,VWS V14.01,2013-01-19 15:14:00,
2013-01-19 10:19:00,42.1,35.7,30.46,NE,45,1.8,2.3,78,0.00,,---,0.00,VWS V14.01,2013-01-19 15:19:00,
2013-01-19 10:24:00,42.4,35.4,30.46,North,0,0.7,1.9,76,0.00,,---,0.00,VWS V14.01,2013-01-19 15:24:00,
2013-01-19 10:29:00,42.4,35.4,30.46,North,0,0.7,0.8,76,0.00,,---,0.00,VWS V14.01,2013-01-19 15:29:00,
2013-01-19 10:34:00,43.0,35.6,30.46,NE,45,0.3,1.5,75,0.00,,---,0.00,VWS V14.01,2013-01-19 15:34:00,
2013-01-19 10:39:00,43.9,36.1,30.45,NNE,22,0.7,2.3,74,0.00,,---,0.00,VWS V14.01,2013-01-19 15:39:00,
2013-01-19 10:44:00,44.5,36.1,30.45,SE,135,1.2,1.5,72,0.00,,---,0.00,VWS V14.01,2013-01-19 15:44:00,
2013-01-19 10:49:00,45.0,36.8,30.45,ESE,112,2.1,2.7,73,0.00,,---,0.00,VWS V14.01,2013-01-19 15:49:00,
2013-01-19 10:54:00,45.0,36.2,30.45,North,0,0.3,0.4,71,0.00,,---,0.00,VWS V14.01,2013-01-19 15:54:00,
2013-01-19 10:59:00,45.4,36.6,30.45,North,0,0.7,0.8,71,0.00,,---,0.00,VWS V14.01,2013-01-19 15:59:00,
2013-01-19 11:04:00,46.3,37.1,30.44,North,0,0.0,1.5,70,0.00,,---,0.00,VWS V14.01,2013-01-19 16:04:00,
2013-01-19 11:09:00,46.8,37.2,30.44,NNW,338,0.7,1.5,69,0.00,,---,0.00,VWS V14.01,2013-01-19 16:09:00,
2013-01-19 11:14:00,47.4,36.3,30.43,NNW,338,3.0,3.8,65,0.00,,---,0.00,VWS V14.01,2013-01-19 16:14:00,
2013-01-19 11:19:00,47.9,35.9,30.42,NNW,338,1.5,1.9,63,0.00,,---,0.00,VWS V14.01,2013-01-19 16:19:00,
2013-01-19 11:24:00,48.8,37.6,30.42,SSE,158,1.2,1.5,65,0.00,,---,0.00,VWS V14.01,2013-01-19 16:24:00,
2013-01-19 11:29:00,49.7,38.0,30.42,NNW,338,1.8,2.3,64,0.00,,---,0.00,VWS V14.01,2013-01-19 16:29:00,
2013-01-19 11:34:00,50.3,38.6,30.41,NW,315,1.8,2.3,64,0.00,,---,0.00,VWS V14.01,2013-01-19 16:34:00,
2013-01-19 11:39:00,51.3,35.2,30.41,SW,225,1.8,2.3,54,0.00,,---,0.00,VWS V14.01,2013-01-19 16:39:00,
2013-01-19 11:44:00,51.7,34.6,30.40,SSW,202,0.3,2.3,52,0.00,,---,0.00,VWS V14.01,2013-01-19 16:44:00,
2013-01-19 11:49:00,52.4,38.0,30.40,East,90,1.8,3.8,58,0.00,,---,0.00,VWS V14.01,2013-01-19 16:49:00,
2013-01-19 11:54:00,53.1,38.7,30.39,North,0,3.3,4.2,58,0.00,,---,0.00,VWS V14.01,2013-01-19 16:54:00,
2013-01-19 11:59:00,53.5,39.1,30.39,WSW,248,2.1,2.7,58,0.00,,---,0.00,VWS V14.01,2013-01-19 16:59:00,
2013-01-19 12:04:00,54.2,39.3,30.38,East,90,3.0,3.8,57,0.00,,---,0.00,VWS V14.01,2013-01-19 17:04:00,
2013-01-19 12:09:00,54.2,37.9,30.38,WNW,292,1.2,1.5,54,0.00,,---,0.00,VWS V14.01,2013-01-19 17:09:00,
2013-01-19 12:15:00,54.3,38.1,30.37,NNW,338,0.7,0.8,54,0.00,,---,0.00,VWS V14.01,2013-01-19 17:15:00,
2013-01-19 12:20:00,54.8,38.1,30.37,NNW,338,3.3,4.2,53,0.00,,---,0.00,VWS V14.01,2013-01-19 17:20:00,
2013-01-19 12:25:00,55.2,37.5,30.37,NNW,338,0.7,0.8,51,0.00,,---,0.00,VWS V14.01,2013-01-19 17:25:00,
2013-01-19 12:30:00,55.4,35.6,30.36,SSW,202,3.0,3.8,47,0.00,,---,0.00,VWS V14.01,2013-01-19 17:30:00,
2013-01-19 12:35:00,55.2,35.9,30.36,WSW,248,0.7,0.8,48,0.00,,---,0.00,VWS V14.01,2013-01-19 17:35:00,
2013-01-19 12:40:00,55.9,38.6,30.35,SE,135,2.1,2.7,52,0.00,,---,0.00,VWS V14.01,2013-01-19 17:40:00,
2013-01-19 12:45:00,56.5,39.1,30.35,ESE,112,4.1,5.2,52,0.00,,---,0.00,VWS V14.01,2013-01-19 17:45:00,
2013-01-19 12:50:00,56.6,38.2,30.34,SSE,158,3.0,3.8,50,0.00,,---,0.00,VWS V14.01,2013-01-19 17:50:00,
2013-01-19 12:55:00,56.6,38.7,30.34,SE,135,1.8,2.3,51,0.00,,---,0.00,VWS V14.01,2013-01-19 17:55:00,
2013-01-19 13:00:00,57.2,37.7,30.34,WNW,292,1.8,2.3,48,0.00,,---,0.00,VWS V14.01,2013-01-19 18:00:00,
2013-01-19 13:05:00,57.4,38.4,30.33,WNW,292,1.2,1.5,49,0.00,,---,0.00,VWS V14.01,2013-01-19 18:05:00,
2013-01-19 13:10:00,58.1,40.1,30.33,SSE,158,3.3,4.2,51,0.00,,---,0.00,VWS V14.01,2013-01-19 18:10:00,
2013-01-19 13:15:00,58.4,40.4,30.33,NNW,338,1.8,2.3,51,0.00,,---,0.00,VWS V14.01,2013-01-19 18:15:00,
2013-01-19 13:20:00,58.8,40.2,30.32,WNW,292,0.3,0.4,50,0.00,,---,0.00,VWS V14.01,2013-01-19 18:20:00,
2013-01-19 13:25:00,58.4,37.7,30.32,NNW,338,3.0,3.8,46,0.00,,---,0.00,VWS V14.01,2013-01-19 18:25:00,
2013-01-19 13:30:00,58.8,40.2,30.32,WNW,292,4.8,6.1,50,0.00,,---,0.00,VWS V14.01,2013-01-19 18:30:00,
2013-01-19 13:35:00,58.6,37.9,30.32,SW,225,3.3,4.2,46,0.00,,---,0.00,VWS V14.01,2013-01-19 18:35:00,
2013-01-19 13:40:00,58.8,37.0,30.31,WNW,292,3.0,3.8,44,0.00,,---,0.00,VWS V14.01,2013-01-19 18:40:00,
2013-01-19 13:45:00,59.0,40.4,30.31,NNW,338,3.0,3.8,50,0.00,,---,0.00,VWS V14.01,2013-01-19 18:45:00,
2013-01-19 13:50:00,59.3,40.2,30.30,NNW,338,3.0,3.8,49,0.00,,---,0.00,VWS V14.01,2013-01-19 18:50:00,
2013-01-19 13:56:00,59.7,41.0,30.30,North,0,1.2,1.5,50,0.00,,---,0.00,VWS V14.01,2013-01-19 18:56:00,
2013-01-19 14:01:00,59.9,41.2,30.30,North,0,0.7,0.8,50,0.00,,---,0.00,VWS V14.01,2013-01-19 19:01:00,
2013-01-19 14:06:00,59.7,39.5,30.30,ESE,112,4.1,5.2,47,0.00,,---,0.00,VWS V14.01,2013-01-19 19:06:00,
2013-01-19 14:11:00,59.3,39.6,30.29,SE,135,1.8,2.3,48,0.00,,---,0.00,VWS V14.01,2013-01-19 19:11:00,
2013-01-19 14:16:00,59.2,39.5,30.29,North,0,1.2,1.5,48,0.00,,---,0.00,VWS V14.01,2013-01-19 19:16:00,
2013-01-19 14:21:00,59.3,40.7,30.29,ENE,68,2.6,3.4,50,0.00,,---,0.00,VWS V14.01,2013-01-19 19:21:00,
2013-01-19 14:27:00,60.1,40.9,30.28,North,0,3.3,4.2,49,0.00,,---,0.00,VWS V14.01,2013-01-19 19:27:00,
2013-01-19 14:32:00,60.1,40.9,30.28,North,0,3.0,3.8,49,0.00,,---,0.00,VWS V14.01,2013-01-19 19:32:00,
2013-01-19 14:37:00,60.4,41.7,30.28,WNW,292,0.3,0.4,50,0.00,,---,0.00,VWS V14.01,2013-01-19 19:37:00,
2013-01-19 14:42:00,60.8,39.9,30.28,WSW,248,1.2,1.5,46,0.00,,---,0.00,VWS V14.01,2013-01-19 19:42:00,
2013-01-19 14:47:00,60.6,40.3,30.27,SSW,202,1.2,1.5,47,0.00,,---,0.00,VWS V14.01,2013-01-19 19:47:00,
2013-01-19 14:53:00,61.1,41.3,30.27,WSW,248,1.2,1.5,48,0.00,,---,0.00,VWS V14.01,2013-01-19 19:53:00,
2013-01-19 14:58:00,61.5,41.6,30.27,West,270,0.0,0.0,48,0.00,,---,0.00,VWS V14.01,2013-01-19 19:58:00,
2013-01-19 15:03:00,61.7,42.3,30.27,West,270,0.7,0.8,49,0.00,,---,0.00,VWS V14.01,2013-01-19 20:03:00,
2013-01-19 15:08:00,62.2,42.8,30.27,NW,315,1.2,1.5,49,0.00,,---,0.00,VWS V14.01,2013-01-19 20:08:00,
2013-01-19 15:13:00,62.6,43.2,30.26,West,270,1.8,2.3,49,0.00,,---,0.00,VWS V14.01,2013-01-19 20:13:00,
2013-01-19 15:18:00,62.6,43.2,30.26,West,270,1.8,2.3,49,0.00,,---,0.00,VWS V14.01,2013-01-19 20:18:00,
2013-01-19 15:23:00,62.9,42.3,30.26,SSW,202,2.1,2.7,47,0.00,,---,0.00,VWS V14.01,2013-01-19 20:23:00,
2013-01-19 15:28:00,62.9,41.8,30.26,SSW,202,4.1,5.2,46,0.00,,---,0.00,VWS V14.01,2013-01-19 20:28:00,
2013-01-19 15:33:00,62.4,42.4,30.26,WNW,292,3.0,3.8,48,0.00,,---,0.00,VWS V14.01,2013-01-19 20:33:00,
2013-01-19 15:39:00,62.4,43.0,30.26,SE,135,0.7,0.8,49,0.00,,---,0.00,VWS V14.01,2013-01-19 20:39:00,
2013-01-19 15:44:00,63.3,42.7,30.26,NW,315,0.7,3.8,47,0.00,,---,0.00,VWS V14.01,2013-01-19 20:44:00,
2013-01-19 15:49:00,63.3,42.7,30.25,SW,225,0.3,3.4,47,0.00,,---,0.00,VWS V14.01,2013-01-19 20:49:00,
2013-01-19 15:54:00,62.9,42.3,30.26,West,270,4.1,5.2,47,0.00,,---,0.00,VWS V14.01,2013-01-19 20:54:00,
2013-01-19 15:59:00,62.8,42.3,30.25,WNW,292,0.7,0.8,47,0.00,,---,0.00,VWS V14.01,2013-01-19 20:59:00,
2013-01-19 16:05:00,63.7,44.2,30.25,SW,225,0.0,0.0,49,0.00,,---,0.00,VWS V14.01,2013-01-19 21:05:00,
2013-01-19 16:10:00,64.2,44.1,30.25,NW,315,0.7,0.8,48,0.00,,---,0.00,VWS V14.01,2013-01-19 21:10:00,
2013-01-19 16:15:00,63.8,42.6,30.25,West,270,1.8,2.3,46,0.00,,---,0.00,VWS V14.01,2013-01-19 21:15:00,
2013-01-19 16:20:00,62.8,42.8,30.25,West,270,1.8,2.3,48,0.00,,---,0.00,VWS V14.01,2013-01-19 21:20:00,
2013-01-19 16:25:00,62.0,42.6,30.25,SSW,202,1.2,1.5,49,0.00,,---,0.00,VWS V14.01,2013-01-19 21:25:00,
2013-01-19 16:30:00,61.7,42.3,30.25,SSW,202,1.8,2.3,49,0.00,,---,0.00,VWS V14.01,2013-01-19 21:30:00,
2013-01-19 16:36:00,60.6,42.4,30.24,SW,225,0.0,0.0,51,0.00,,---,0.00,VWS V14.01,2013-01-19 21:36:00,
2013-01-19 16:41:00,59.7,42.1,30.25,SW,225,0.0,0.0,52,0.00,,---,0.00,VWS V14.01,2013-01-19 21:41:00,
2013-01-19 16:46:00,58.8,41.7,30.24,SW,225,0.0,0.4,53,0.00,,---,0.00,VWS V14.01,2013-01-19 21:46:00,
2013-01-19 16:51:00,58.3,41.8,30.24,SW,225,0.0,0.0,54,0.00,,---,0.00,VWS V14.01,2013-01-19 21:51:00,
2013-01-19 16:56:00,57.7,41.7,30.24,SSW,202,0.0,0.0,55,0.00,,---,0.00,VWS V14.01,2013-01-19 21:56:00,
2013-01-19 17:01:00,57.4,41.9,30.24,SSW,202,2.1,2.7,56,0.00,,---,0.00,VWS V14.01,2013-01-19 22:01:00,
2013-01-19 17:06:00,56.8,41.3,30.24,SSW,202,0.0,0.0,56,0.00,,---,0.00,VWS V14.01,2013-01-19 22:06:00,
2013-01-19 17:12:00,56.3,41.3,30.24,SSW,202,0.0,0.0,57,0.00,,---,0.00,VWS V14.01,2013-01-19 22:12:00,
2013-01-19 17:17:00,55.6,41.1,30.24,SSW,202,0.0,0.0,58,0.00,,---,0.00,VWS V14.01,2013-01-19 22:17:00,
2013-01-19 17:22:00,55.2,41.2,30.24,SSW,202,0.0,0.0,59,0.00,,---,0.00,VWS V14.01,2013-01-19 22:22:00,
2013-01-19 17:27:00,54.8,41.2,30.24,SSW,202,0.0,0.0,60,0.00,,---,0.00,VWS V14.01,2013-01-19 22:27:00,
2013-01-19 17:32:00,54.3,41.2,30.23,SSW,202,0.0,0.0,61,0.00,,---,0.00,VWS V14.01,2013-01-19 22:32:00,
2013-01-19 17:37:00,53.7,41.0,30.24,SSW,202,0.0,0.0,62,0.00,,---,0.00,VWS V14.01,2013-01-19 22:37:00,
2013-01-19 17:42:00,53.0,41.1,30.24,SSW,202,0.0,0.0,64,0.00,,---,0.00,VWS V14.01,2013-01-19 22:42:00,
2013-01-19 17:47:00,52.1,40.3,30.23,SSW,202,0.0,0.0,64,0.00,,---,0.00,VWS V14.01,2013-01-19 22:47:00,
2013-01-19 17:52:00,51.3,40.3,30.23,SSW,202,0.0,0.0,66,0.00,,---,0.00,VWS V14.01,2013-01-19 22:52:00,
2013-01-19 17:57:00,50.8,39.8,30.23,SSW,202,0.0,0.0,66,0.00,,---,0.00,VWS V14.01,2013-01-19 22:57:00,
2013-01-19 18:02:00,50.3,40.2,30.23,SSW,202,0.0,0.0,68,0.00,,---,0.00,VWS V14.01,2013-01-19 23:02:00,
2013-01-19 18:07:00,49.5,39.4,30.24,South,180,0.0,0.4,68,0.00,,---,0.00,VWS V14.01,2013-01-19 23:07:00,
2013-01-19 18:13:00,49.0,39.3,30.24,South,180,0.0,0.0,69,0.00,,---,0.00,VWS V14.01,2013-01-19 23:13:00,
2013-01-19 18:18:00,48.8,39.1,30.23,South,180,0.0,0.0,69,0.00,,---,0.00,VWS V14.01,2013-01-19 23:18:00,
2013-01-19 18:23:00,48.5,39.2,30.24,South,180,0.0,0.0,70,0.00,,---,0.00,VWS V14.01,2013-01-19 23:23:00,
2013-01-19 18:29:00,48.1,39.2,30.23,South,180,0.0,0.0,71,0.00,,---,0.00,VWS V14.01,2013-01-19 23:29:00,
2013-01-19 18:34:00,47.6,39.0,30.23,SSE,158,0.3,0.4,72,0.00,,---,0.00,VWS V14.01,2013-01-19 23:34:00,
2013-01-19 18:39:00,47.2,38.7,30.23,SE,135,0.0,0.0,72,0.00,,---,0.00,VWS V14.01,2013-01-19 23:39:00,
2013-01-19 18:44:00,46.8,38.6,30.24,SE,135,0.3,0.4,73,0.00,,---,0.00,VWS V14.01,2013-01-19 23:44:00,
2013-01-19 18:49:00,46.7,38.9,30.24,SE,135,0.0,0.0,74,0.00,,---,0.00,VWS V14.01,2013-01-19 23:49:00,
2013-01-19 18:54:00,46.3,38.8,30.24,SE,135,0.0,0.0,75,0.00,,---,0.00,VWS V14.01,2013-01-19 23:54:00,
2013-01-19 18:59:00,45.9,38.5,30.24,SE,135,0.0,0.0,75,0.00,,---,0.00,VWS V14.01,2013-01-19 23:59:00,
2013-01-19 19:04:00,45.6,38.2,30.24,SE,135,0.0,0.0,75,0.00,,---,0.00,VWS V14.01,2013-01-20 00:04:00,
2013-01-19 19:09:00,45.2,38.1,30.24,SE,135,0.0,0.4,76,0.00,,---,0.00,VWS V14.01,2013-01-20 00:09:00,
2013-01-19 19:15:00,45.2,38.5,30.24,SE,135,0.0,0.0,77,0.00,,---,0.00,VWS V14.01,2013-01-20 00:15:00,
2013-01-19 19:20:00,45.0,38.2,30.24,SE,135,0.0,0.0,77,0.00,,---,0.00,VWS V14.01,2013-01-20 00:20:00,
2013-01-19 19:25:00,44.5,37.8,30.24,SE,135,0.0,0.0,77,0.00,,---,0.00,VWS V14.01,2013-01-20 00:25:00,
2013-01-19 19:30:00,44.5,37.8,30.23,SE,135,0.0,0.0,77,0.00,,---,0.00,VWS V14.01,2013-01-20 00:30:00,
2013-01-19 19:35:00,44.2,37.7,30.23,SE,135,0.0,0.0,78,0.00,,---,0.00,VWS V14.01,2013-01-20 00:35:00,
2013-01-19 19:40:00,44.1,37.7,30.24,SE,135,0.0,0.0,78,0.00,,---,0.00,VWS V14.01,2013-01-20 00:40:00,
2013-01-19 19:45:00,43.9,38.1,30.23,SE,135,0.0,0.0,80,0.00,,---,0.00,VWS V14.01,2013-01-20 00:45:00,
2013-01-19 19:50:00,43.7,37.9,30.23,SE,135,0.0,0.0,80,0.00,,---,0.00,VWS V14.01,2013-01-20 00:50:00,
2013-01-19 19:55:00,43.3,37.8,30.23,SE,135,0.0,0.0,81,0.00,,---,0.00,VWS V14.01,2013-01-20 00:55:00,
2013-01-19 20:00:00,43.2,37.7,30.23,SE,135,0.0,0.0,81,0.00,,---,0.00,VWS V14.01,2013-01-20 01:00:00,
2013-01-19 20:05:00,43.0,37.5,30.24,SE,135,0.0,0.0,81,0.00,,---,0.00,VWS V14.01,2013-01-20 01:05:00,
2013-01-19 20:10:00,42.6,37.5,30.24,SE,135,0.0,0.0,82,0.00,,---,0.00,VWS V14.01,2013-01-20 01:10:00,
2013-01-19 20:15:00,42.4,37.0,30.24,SE,135,0.0,0.0,81,0.00,,---,0.00,VWS V14.01,2013-01-20 01:15:00,
2013-01-19 20:20:00,42.3,36.9,30.24,SE,135,0.0,0.0,81,0.00,,---,0.00,VWS V14.01,2013-01-20 01:20:00,
2013-01-19 20:25:00,42.1,36.7,30.24,SE,135,0.0,0.0,81,0.00,,---,0.00,VWS V14.01,2013-01-20 01:25:00,
2013-01-19 20:30:00,41.9,36.8,30.24,SE,135,0.0,0.0,82,0.00,,---,0.00,VWS V14.01,2013-01-20 01:30:00,
2013-01-19 20:35:00,41.7,36.6,30.23,SE,135,0.7,0.8,82,0.00,,---,0.00,VWS V14.01,2013-01-20 01:35:00,
2013-01-19 20:40:00,41.7,36.6,30.23,SE,135,0.0,0.0,82,0.00,,---,0.00,VWS V14.01,2013-01-20 01:40:00,
2013-01-19 20:45:00,41.7,36.9,30.23,SE,135,0.0,0.0,83,0.00,,---,0.00,VWS V14.01,2013-01-20 01:45:00,
2013-01-19 20:51:00,41.5,36.7,30.23,SE,135,0.0,0.0,83,0.00,,---,0.00,VWS V14.01,2013-01-20 01:51:00,
2013-01-19 20:56:00,41.4,36.6,30.23,SE,135,0.0,0.0,83,0.00,,---,0.00,VWS V14.01,2013-01-20 01:56:00,
2013-01-19 21:01:00,41.2,36.1,30.23,SE,135,0.0,0.0,82,0.00,,---,0.00,VWS V14.01,2013-01-20 02:01:00,
2013-01-19 21:07:00,40.8,36.0,30.23,SE,135,0.0,0.0,83,0.00,,---,0.00,VWS V14.01,2013-01-20 02:07:00,
2013-01-19 21:12:00,40.6,35.8,30.22,SE,135,0.0,0.0,83,0.00,,---,0.00,VWS V14.01,2013-01-20 02:12:00,
2013-01-19 21:17:00,40.6,35.8,30.22,SE,135,0.0,0.0,83,0.00,,---,0.00,VWS V14.01,2013-01-20 02:17:00,
2013-01-19 21:22:00,40.5,36.0,30.22,SE,135,0.0,0.0,84,0.00,,---,0.00,VWS V14.01,2013-01-20 02:22:00,
2013-01-19 21:27:00,40.6,36.1,30.21,SE,135,0.0,0.0,84,0.00,,---,0.00,VWS V14.01,2013-01-20 02:27:00,
2013-01-19 21:32:00,40.6,36.1,30.21,SE,135,0.0,0.0,84,0.00,,---,0.00,VWS V14.01,2013-01-20 02:32:00,
2013-01-19 21:37:00,40.6,36.4,30.21,SE,135,0.0,0.0,85,0.00,,---,0.00,VWS V14.01,2013-01-20 02:37:00,
2013-01-19 21:42:00,40.3,36.2,30.21,SE,135,0.0,0.0,85,0.00,,---,0.00,VWS V14.01,2013-01-20 02:42:00,
2013-01-19 21:48:00,40.3,36.2,30.21,SE,135,0.0,0.0,85,0.00,,---,0.00,VWS V14.01,2013-01-20 02:48:00,
2013-01-19 21:53:00,40.1,36.0,30.21,SE,135,0.0,0.0,85,0.00,,---,0.00,VWS V14.01,2013-01-20 02:53:00,
2013-01-19 21:58:00,39.9,35.8,30.21,SE,135,0.0,0.0,85,0.00,,---,0.00,VWS V14.01,2013-01-20 02:58:00,
2013-01-19 22:03:00,39.7,35.6,30.21,SE,135,0.0,0.0,85,0.00,,---,0.00,VWS V14.01,2013-01-20 03:03:00,
2013-01-19 22:08:00,39.6,35.8,30.21,SSE,158,0.0,0.0,86,0.00,,---,0.00,VWS V14.01,2013-01-20 03:08:00,
2013-01-19 22:13:00,39.6,35.8,30.21,South,180,0.0,0.0,86,0.00,,---,0.00,VWS V14.01,2013-01-20 03:13:00,
2013-01-19 22:19:00,39.6,35.8,30.21,South,180,0.0,0.0,86,0.00,,---,0.00,VWS V14.01,2013-01-20 03:19:00,
2013-01-19 22:24:00,39.6,35.8,30.21,South,180,0.0,0.0,86,0.00,,---,0.00,VWS V14.01,2013-01-20 03:24:00,
2013-01-19 22:29:00,39.6,35.8,30.21,South,180,0.0,0.0,86,0.00,,---,0.00,VWS V14.01,2013-01-20 03:29:00,
2013-01-19 22:34:00,39.6,35.8,30.21,South,180,0.0,0.0,86,0.00,,---,0.00,VWS V14.01,2013-01-20 03:34:00,
2013-01-19 22:39:00,39.6,35.8,30.21,South,180,0.0,0.0,86,0.00,,---,0.00,VWS V14.01,2013-01-20 03:39:00,
2013-01-19 22:44:00,39.6,35.8,30.21,South,180,0.0,0.0,86,0.00,,---,0.00,VWS V14.01,2013-01-20 03:44:00,
2013-01-19 22:49:00,39.4,35.9,30.21,South,180,0.0,0.0,87,0.00,,---,0.00,VWS V14.01,2013-01-20 03:49:00,
2013-01-19 22:54:00,39.6,36.3,30.21,South,180,0.0,0.0,88,0.00,,---,0.00,VWS V14.01,2013-01-20 03:54:00,
2013-01-19 22:59:00,39.6,36.3,30.20,South,180,0.0,0.0,88,0.00,,---,0.00,VWS V14.01,2013-01-20 03:59:00,
2013-01-19 23:04:00,39.6,36.3,30.20,South,180,0.0,0.0,88,0.00,,---,0.00,VWS V14.01,2013-01-20 04:04:00,
2013-01-19 23:09:00,39.6,36.3,30.20,South,180,0.0,0.0,88,0.00,,---,0.00,VWS V14.01,2013-01-20 04:09:00,
2013-01-19 23:14:00,39.4,36.2,30.19,South,180,0.0,0.0,88,0.00,,---,0.00,VWS V14.01,2013-01-20 04:14:00,
2013-01-19 23:19:00,39.4,35.9,30.19,South,180,0.0,0.0,87,0.00,,---,0.00,VWS V14.01,2013-01-20 04:19:00,
2013-01-19 23:24:00,39.2,35.7,30.19,South,180,0.0,0.0,87,0.00,,---,0.00,VWS V14.01,2013-01-20 04:24:00,
2013-01-19 23:29:00,39.0,35.8,30.19,South,180,0.0,0.0,88,0.00,,---,0.00,VWS V14.01,2013-01-20 04:29:00,
2013-01-19 23:34:00,38.8,35.6,30.19,South,180,0.0,0.0,88,0.00,,---,0.00,VWS V14.01,2013-01-20 04:34:00,
2013-01-19 23:39:00,38.8,35.6,30.18,South,180,0.0,0.0,88,0.00,,---,0.00,VWS V14.01,2013-01-20 04:39:00,
2013-01-19 23:44:00,38.8,35.6,30.18,South,180,0.0,0.0,88,0.00,,---,0.00,VWS V14.01,2013-01-20 04:44:00,
2013-01-19 23:50:00,38.7,35.5,30.18,South,180,0.0,0.0,88,0.00,,---,0.00,VWS V14.01,2013-01-20 04:50:00,
2013-01-19 23:55:00,38.7,35.5,30.18,South,180,0.0,0.0,88,0.00,,---,0.00,VWS V14.01,2013-01-20 04:55:00,